Skip Page Navigation
NASA JPL Caltech
NASA Logo - Jet Propulsion Laboratory + View the NASA Portal
+ Center for Near-Earth Object Studies
JPL Home Earth Solar System Stars & Galaxies Technology
JPL Solar System Dynamics
BODIES ORBITS EPHEMERIDES TOOLS PHYSICAL DATA DISCOVERY FAQ SITE MAP
JPL Small-Body Database Browser
Search: [ help ]  
135664 (2002 NH4)
Classification: Main-belt Asteroid          SPK-ID: 2135664
Ephemeris | Orbit Diagram | Orbital Elements | Mission Design | Physical Parameters | Discovery Circumstances ]

[ show orbit diagram ]
Orbital Elements at Epoch 2459200.5 (2020-Dec-17.0) TDB
Reference: JPL 18 (heliocentric ecliptic J2000)
 Element Value Uncertainty (1-sigma)   Units 
e .2022439506169682 2.9809e-08  
a 2.478525934658737 1.1009e-08 au
q 1.97725905792674 7.6782e-08 au
i 4.013831176932319 6.5199e-06 deg
node 139.9501808592858 7.5029e-05 deg
peri 135.7516163953153 7.8199e-05 deg
M 272.5798196284888 2.1759e-05 deg
tp 2459546.596992775047
(2021-Nov-28.09699277)
8.7194e-05 TDB
period 1425.242053602769
3.90
9.4956e-06
2.6e-08
d
yr
n .2525886736852742 1.6829e-09 deg/d
Q 2.979792811390733 1.3235e-08 au
  Orbit Determination Parameters
   # obs. used (total)      413  
   data-arc span      9304 days (25.47 yr)  
   first obs. used      1995-10-23  
   last obs. used      2021-04-13  
   planetary ephem.      DE441  
   SB-pert. ephem.      SB441-N16  
   condition code      0  
   norm. resid. RMS      .50942  
   source      ORB  
   producer      Otto Matic  
   solution date      2021-May-04 09:21:41  

Additional Information
 Earth MOID = .961443 au 
 Jupiter MOID = 2.15323 au 
 T_jup = 3.448 
[ hide covariance matrix ]
Orbital Elements at Epoch 2457175.5 (2015-Jun-02.0) TDB
Reference: JPL 18 (heliocentric ecliptic J2000)
 Element Value Uncertainty (1-sigma)   Units 
e .2030588980397587 2.979e-08  
q 1.974512477086757 7.6738e-08 au
tp 2456696.361293293577
(2014-Feb-07.86129329)
7.9807e-05 TDB
node 139.990054650917 7.5025e-05 deg
peri 135.7223985051492 7.8182e-05 deg
i 4.014554291657968 6.5224e-06 deg
  Orbit Determination Parameters
   # obs. used (total)      413  
   data-arc span      9304 days (25.47 yr)  
   first obs. used      1995-10-23  
   last obs. used      2021-04-13  
   planetary ephem.      DE441  
   SB-pert. ephem.      SB441-N16  
   condition code      0  
   norm. resid. RMS      .50942  
   source      ORB  
   producer      Otto Matic  
   solution date      2021-May-04 09:21:41  

Additional Information
 Jupiter MOID = 2.15323 au 
 T_jup = 3.448 
Orbit Covariance (6×6)
  e q tp node peri i
e 8.87417601367163E-16 -2.272443017154969E-15 5.871170390000743E-13 -6.202406655841734E-15 1.502587649956999E-13 -9.072952733318535E-16
q -2.272443017154969E-15 5.888753645419189E-15 -1.276344033826529E-12 1.95252473319739E-14 -3.182197613567253E-13 2.909286455169335E-15
tp 5.871170390000743E-13 -1.276344033826529E-12 6.369153827159379E-9 -1.226322149441864E-11 1.790599376821681E-9 6.449063604692529E-13
node -6.202406655841734E-15 1.95252473319739E-14 -1.226322149441864E-11 5.628781493234319E-9 -5.617246928366647E-9 3.412901637704144E-10
peri 1.502587649956999E-13 -3.182197613567253E-13 1.790599376821681E-9 -5.617246928366647E-9 6.11245402726385E-9 -3.401762077758393E-10
i -9.072952733318535E-16 2.909286455169335E-15 6.449063604692529E-13 3.412901637704144E-10 -3.401762077758393E-10 4.25419785222143E-11

Ephemeris | Orbit Diagram | Orbital Elements | Mission Design | Physical Parameters | Discovery Circumstances ]

Physical Parameter Table
Parameter Symbol Value Units Sigma Reference Notes
absolute magnitude H 16.57   n/a MPCxxxxx  

135664 (2002 NH4)          Discovered 2002-Jul-03 by NEAT at Palomar
Reference: 20060907/Numbers.arcLast Updated: 2006-09-10
Ephemeris | Orbit Diagram | Orbital Elements | Mission Design | Physical Parameters | Discovery Circumstances ]
ABOUT SSD CREDITS/AWARDS PRIVACY/COPYRIGHT GLOSSARY LINKS
FirstGov 2021-Jun-19 19:58 UT
(server date/time)  
NASA Home Page
Site Manager:   Ryan S. Park
Webmaster  Alan B. Chamberlin